Omaha, NE

6:44 AM CST on February 20, 2017 (GMT -0600)
Eppley Airfield

Weather History for KOMA - September, 2013

Change the Weather History Date:

Wednesday, September 11, 2013

  Actual Average Record
Temperature  
Mean Temperature 78 °F 68 °F  
Max Temperature 85 °F 80 °F 100 °F (1895)
Min Temperature 71 °F 56 °F 40 °F (1940)
Degree Days  
Heating Degree Days 0 2  
Month to date heating degree days 0 14  
Since 1 July heating degree days 5 22  
Cooling Degree Days 13 5  
Month to date cooling degree days 140 65  
Year to date cooling degree days 1206 1045  
Growing Degree Days 28 (Base 50)    
Moisture  
Dew Point 69 °F    
Average Humidity 74    
Maximum Humidity 93    
Minimum Humidity 55    
Precipitation  
Precipitation 0.43 in 0.10 in 2.64 in (1972)
Month to date precipitation 1.64 1.09  
Year to date precipitation 22.88 24.20  
Snow  
Snow 0.00 in 0.00 in - ()
Month to date snowfall 0.0 0.0  
Since 1 July snowfall 0.0 0.0  
Snow Depth 0.00 in    
Sea Level Pressure  
Sea Level Pressure 30.07 in    
Wind  
Wind Speed 3 mph (NE)    
Max Wind Speed 14 mph    
Max Gust Speed 17 mph    
Visibility 10 miles    
Events Rain , Thunderstorm    
T = Trace of Precipitation, MM = Missing Value Source: NWS Daily Summary

Daily Weather History Graph

Daily Weather History Graph

Search for Another Location

Airport or City:

Trip Planner

Search our weather history database for the weather conditions in past years. The results will help you decide how hot, cold, wet, or windy it might be!

Date:

Astronomy

Sep. 11, 2013 Rise Set
Actual Time 7:00 AM CDT 7:39 PM CDT
Civil Twilight 6:32 AM CDT 8:06 PM CDT
Nautical Twilight 5:59 AM CDT 8:39 PM CDT
Astronomical Twilight 5:25 AM CDT 9:13 PM CDT
Moon 1:33 PM CDT (9/11) 11:32 PM CDT (9/11)
Length of Visible Light 13h 34m
Length of Day
12h 38m
Waxing Crescent, 39% of the Moon is Illuminated
Sep 11
Waxing Crescent
Sep 12
First Quarter
Sep 19
Full
Sep 26
Last Quarter
Oct 4
New

Hourly Weather History & Observations

Time (CDT) Temp. Heat Index Dew Point Humidity Pressure Visibility Wind Dir Wind Speed Gust Speed Precip Events Conditions
12:52 AM 73.0 °F - 68.0 °F 84% 30.05 in 9.0 mi South 3.5 mph - 0.07 in Rain , Thunderstorm Light Thunderstorms and Rain
1:30 AM 71.6 °F - 68.0 °F 88% 30.05 in 9.0 mi ESE 9.2 mph - 0.04 in Rain Rain
1:52 AM 71.1 °F - 69.1 °F 93% 30.04 in 10.0 mi SSE 6.9 mph - 0.07 in Rain Light Rain
2:35 AM 71.6 °F - 68.0 °F 88% 30.08 in 9.0 mi Calm Calm - 0.04 in Rain , Thunderstorm Light Thunderstorms and Rain
2:52 AM 71.1 °F - 68.0 °F 90% 30.06 in 10.0 mi SE 5.8 mph - 0.04 in Rain , Thunderstorm Light Thunderstorms and Rain
3:14 AM 71.6 °F - 68.0 °F 88% 30.08 in 9.0 mi South 4.6 mph - 0.01 in Rain Light Rain
3:52 AM 72.0 °F - 68.0 °F 87% 30.04 in 10.0 mi SSE 3.5 mph - 0.04 in Rain Light Rain
4:52 AM 72.0 °F - 69.1 °F 91% 30.05 in 7.0 mi Calm Calm - 0.02 in Rain Light Rain
5:52 AM 71.1 °F - 69.1 °F 93% 30.05 in 10.0 mi Calm Calm - 0.06 in   Overcast
6:52 AM 72.0 °F - 68.0 °F 87% 30.06 in 10.0 mi Calm Calm - N/A   Scattered Clouds
7:52 AM 72.0 °F - 69.1 °F 91% 30.07 in 10.0 mi Calm Calm - N/A   Mostly Cloudy
8:52 AM 73.9 °F - 69.1 °F 85% 30.09 in 10.0 mi Calm Calm - N/A   Mostly Cloudy
9:52 AM 77.0 °F - 70.0 °F 79% 30.08 in 10.0 mi South 3.5 mph - N/A   Mostly Cloudy
10:43 AM 78.8 °F - 69.8 °F 74% 30.12 in 10.0 mi NNW 6.9 mph - N/A   Mostly Cloudy
10:52 AM 77.0 °F - 69.1 °F 76% 30.09 in 10.0 mi North 6.9 mph - N/A   Mostly Cloudy
11:45 AM 80.6 °F 83.9 °F 69.8 °F 70% 30.12 in 10.0 mi North 6.9 mph - N/A   Mostly Cloudy
11:52 AM 79.0 °F - 70.0 °F 74% 30.09 in 10.0 mi North 6.9 mph - N/A   Mostly Cloudy
12:52 PM 82.0 °F 85.5 °F 69.1 °F 65% 30.09 in 10.0 mi NE 3.5 mph - N/A   Mostly Cloudy
1:52 PM 82.9 °F 86.5 °F 69.1 °F 63% 30.08 in 10.0 mi Variable 3.5 mph - N/A   Mostly Cloudy
2:52 PM 84.0 °F 86.5 °F 66.9 °F 56% 30.07 in 10.0 mi Calm Calm - N/A   Overcast
3:42 PM 75.2 °F - 68.0 °F 78% 30.10 in 5.0 mi North 12.7 mph - 0.01 in Rain , Thunderstorm Thunderstorms and Rain
3:52 PM 75.0 °F - 68.0 °F 79% 30.08 in 10.0 mi North 9.2 mph - 0.02 in Rain , Thunderstorm Light Thunderstorms and Rain
4:33 PM 75.2 °F - 66.2 °F 73% 30.10 in 4.0 mi ESE 5.8 mph - 0.17 in Rain Light Rain
4:52 PM 73.9 °F - 66.9 °F 79% 30.08 in 10.0 mi ENE 3.5 mph - 0.19 in Rain Light Rain
5:52 PM 75.9 °F - 69.1 °F 79% 30.07 in 10.0 mi SSW 3.5 mph - 0.00 in   Overcast
6:52 PM 75.9 °F - 70.0 °F 82% 30.06 in 10.0 mi Calm Calm - N/A   Mostly Cloudy
7:52 PM 73.0 °F - 70.0 °F 90% 30.06 in 10.0 mi NNW 4.6 mph - N/A   Mostly Cloudy
8:52 PM 73.0 °F - 70.0 °F 90% 30.08 in 10.0 mi Calm Calm - N/A   Overcast
9:52 PM 72.0 °F - 69.1 °F 91% 30.09 in 10.0 mi NNW 4.6 mph - N/A   Overcast
10:52 PM 72.0 °F - 69.1 °F 91% 30.09 in 10.0 mi NNW 3.5 mph - N/A   Overcast
11:52 PM 73.0 °F - 69.1 °F 87% 30.09 in 10.0 mi Calm Calm - N/A   Overcast